Albany, NY

8:56 AM EST on December 08, 2019 (GMT -0500)
Albany International

Weather History for KALB - October, 2019

Change the Weather History Date:

Wednesday, October 2, 2019

  Actual Average Record
Temperature  
Mean Temperature 62 °F 55 °F  
Max Temperature 75 °F 65 °F 85 °F (1927)
Min Temperature 49 °F 45 °F 30 °F (1972)
Degree Days  
Heating Degree Days 3 10  
Month to date heating degree days 3 20  
Since 1 July heating degree days 80 187  
Cooling Degree Days 0 0  
Month to date cooling degree days 4 0  
Year to date cooling degree days 771 594  
Growing Degree Days 14 (Base 50)    
Moisture  
Dew Point 58 °F    
Average Humidity 73    
Maximum Humidity 90    
Minimum Humidity 56    
Precipitation  
Precipitation 0.11 in 0.12 in 1.70 in (1883)
Month to date precipitation 0.75 0.24  
Year to date precipitation 31.96 29.69  
Snow  
Snow 0.00 in 0.00 in T in (1899)
Month to date snowfall 0.0 0.0  
Since 1 July snowfall 0.0 0.0  
Since 1 September snowfall 0.0 0.0  
Snow Depth 0.00 in    
Sea Level Pressure  
Sea Level Pressure 29.87 in    
Wind  
Wind Speed 9 mph (NNW)    
Max Wind Speed 20 mph    
Max Gust Speed 27 mph    
Visibility 8 miles    
Events Rain    
T = Trace of Precipitation, MM = Missing Value Source: NWS Daily Summary

Daily Weather History Graph

Daily Weather History Graph

Search for Another Location

Airport or City:

Astronomy

Oct. 02, 2019 Rise Set
Actual Time 6:53 AM EDT 6:35 PM EDT
Civil Twilight 6:25 AM EDT 7:03 PM EDT
Nautical Twilight 5:52 AM EDT 7:36 PM EDT
Astronomical Twilight 5:19 AM EDT 8:09 PM EDT
Moon 11:21 AM EDT (10/2) 9:21 PM EDT (10/2)
Length of Visible Light 12h 38m
Length of Day
11h 41m
Waxing Crescent, 20% of the Moon is Illuminated
Oct 2
Waxing Crescent
Oct 5
First Quarter
Oct 13
Full
Oct 21
Last Quarter
Oct 27
New

Hourly Weather History & Observations

Time (EDT) Temp. Dew Point Humidity Pressure Visibility Wind Dir Wind Speed Gust Speed Precip Events Conditions
12:51 AM 75.0 °F 64.0 °F 69% 29.79 in 10.0 mi West 8.1 mph - N/A   Mostly Cloudy
1:51 AM 75.0 °F 64.0 °F 69% 29.80 in 10.0 mi West 5.8 mph - N/A   Overcast
1:58 AM 73.9 °F 64.0 °F 71% 29.80 in 10.0 mi West 4.6 mph - N/A   Overcast
2:30 AM 73.9 °F 64.0 °F 71% 29.80 in 10.0 mi West 8.1 mph - N/A   Mostly Cloudy
2:51 AM 73.0 °F 64.0 °F 73% 29.79 in 10.0 mi West 6.9 mph - N/A   Overcast
3:51 AM 73.0 °F 64.0 °F 73% 29.79 in 10.0 mi West 6.9 mph - N/A   Overcast
4:12 AM 73.0 °F 64.9 °F 76% 29.80 in 10.0 mi North 4.6 mph - N/A   Overcast
4:42 AM 72.0 °F 64.9 °F 78% 29.80 in 10.0 mi WNW 3.5 mph - N/A   Overcast
4:51 AM 71.1 °F 64.9 °F 81% 29.79 in 10.0 mi WNW 4.6 mph - N/A   Overcast
5:51 AM 71.1 °F 64.9 °F 81% 29.79 in 10.0 mi NW 3.5 mph - 0.00 in   Mostly Cloudy
6:51 AM 71.1 °F 66.0 °F 84% 29.81 in 10.0 mi West 4.6 mph - N/A   Overcast
7:51 AM 72.0 °F 66.0 °F 81% 29.81 in 10.0 mi WSW 8.1 mph - N/A   Mostly Cloudy
8:51 AM 72.0 °F 66.0 °F 81% 29.82 in 10.0 mi West 6.9 mph - N/A   Mostly Cloudy
9:51 AM 73.0 °F 66.0 °F 79% 29.81 in 10.0 mi West 5.8 mph - N/A   Mostly Cloudy
10:51 AM 73.9 °F 66.0 °F 76% 29.78 in 10.0 mi SSW 3.5 mph - N/A   Overcast
11:51 AM 73.9 °F 64.9 °F 73% 29.79 in 10.0 mi North 5.8 mph - 0.00 in Rain Light Rain
11:59 AM 72.0 °F 66.0 °F 81% 29.79 in 2.5 mi NW 6.9 mph - 0.02 in Rain Light Rain
12:06 PM 72.0 °F 66.9 °F 84% 29.80 in 5.0 mi NNW 9.2 mph - 0.02 in Rain Light Rain
12:23 PM 69.1 °F 64.9 °F 87% 29.81 in 9.0 mi North 9.2 mph - 0.02 in   Overcast
12:40 PM 66.9 °F 63.0 °F 87% 29.82 in 8.0 mi North 12.7 mph - 0.02 in Rain Light Rain
12:51 PM 64.9 °F 61.0 °F 87% 29.82 in 2.0 mi North 17.3 mph - 0.04 in Rain Light Rain
1:15 PM 63.0 °F 59.0 °F 87% 29.83 in 2.0 mi North 13.8 mph 26.5 mph 0.01 in Rain Light Rain
1:25 PM 62.1 °F 57.9 °F 86% 29.84 in 3.0 mi North 13.8 mph 20.7 mph 0.01 in Rain Light Rain
1:51 PM 61.0 °F 57.0 °F 87% 29.85 in 6.0 mi North 13.8 mph - 0.01 in Rain Light Rain
2:10 PM 60.1 °F 57.0 °F 90% 29.86 in 2.0 mi North 11.5 mph - 0.03 in Rain Light Rain
2:51 PM 61.0 °F 55.9 °F 83% 29.87 in 2.0 mi NNE 9.2 mph - 0.06 in Rain Light Rain
3:45 PM 60.8 °F 55.4 °F 82% 29.88 in 3.0 mi NNE 13.8 mph - 0.00 in Rain Light Rain
3:51 PM 59.0 °F 55.0 °F 87% 29.89 in 4.0 mi North 12.7 mph - 0.00 in Rain Light Rain
4:25 PM 57.9 °F 53.1 °F 84% 29.91 in 5.0 mi North 13.8 mph - 0.00 in Rain Light Rain
4:45 PM 57.2 °F 51.8 °F 82% 29.91 in 7.0 mi North 11.5 mph 18.4 mph 0.00 in Rain Light Rain
4:51 PM 57.0 °F 51.1 °F 81% 29.91 in 7.0 mi NNE 10.4 mph 19.6 mph 0.00 in   Overcast
5:10 PM 57.0 °F 51.1 °F 81% 29.91 in 10.0 mi NNE 8.1 mph - N/A   Overcast
5:51 PM 55.0 °F 48.9 °F 80% 29.94 in 10.0 mi North 13.8 mph 21.9 mph 0.00 in Rain Light Rain
6:51 PM 54.0 °F 46.0 °F 75% 29.97 in 10.0 mi NNE 12.7 mph - 0.00 in   Overcast
7:51 PM 53.1 °F 44.1 °F 71% 30.01 in 10.0 mi North 13.8 mph 21.9 mph N/A   Overcast
8:51 PM 53.1 °F 42.1 °F 66% 30.06 in 10.0 mi NNE 15.0 mph 20.7 mph N/A   Overcast
9:42 PM 52.0 °F 42.1 °F 69% 30.08 in 10.0 mi NNE 13.8 mph - N/A   Overcast
9:51 PM 52.0 °F 42.1 °F 69% 30.08 in 10.0 mi North 8.1 mph 19.6 mph N/A   Overcast
10:51 PM 52.0 °F 39.9 °F 63% 30.11 in 10.0 mi NNE 11.5 mph - N/A   Overcast
11:51 PM 50.0 °F 36.0 °F 59% 30.12 in 10.0 mi NNE 10.4 mph - N/A   Overcast